Regional Weather Roundup
Issued by NWS Cleveland, OH

Home | Current Version | Previous Version | Graphics & Text | Print | Product List | Glossary On
Versions: 1 2 3 4 5 6 7 8 9 10 11 12 13 14 15 16 17 18 19 20 21 22 23 24 25 26 27 28 29 30 31 32 33 34 35 36 37 38 39 40 41 42 43 44 45 46 47 48 49 50
000
ASUS41 KCLE 301110
RWRCLE
OHIO REGIONAL WEATHER ROUNDUP
NATIONAL WEATHER SERVICE CLEVELAND, OH
700 AM EDT THU JUL 30 2015

NOTE: "FAIR" INDICATES FEW OR NO CLOUDS BELOW 12,000 FEET WITH NO
SIGNIFICANT WEATHER AND/OR OBSTRUCTIONS TO VISIBILITY.

OHZ001>008-015>018-024>027-034-035-043-044-301200-
   NORTHWEST OHIO

CITY           SKY/WX    TMP DP  RH WIND       PRES   REMARKS
DEFIANCE       CLEAR     63  58  83 SW3       30.01R
FINDLAY        CLEAR     62  58  86 W6        30.00R
TOLEDO EXPRESS CLEAR     62  58  86 W7        29.98R
TOLEDO EXEC    CLEAR     64  58  80 W6        29.99R
LIMA           CLEAR     64  59  83 W6        30.02R
$$

OHZ009>014-019>023-028>033-038-089-301200-
   NORTHEAST OHIO

CITY           SKY/WX    TMP DP  RH WIND       PRES   REMARKS
CLE-HOPKINS    MOCLDY    65  62  90 SW7       29.98R
CLE-LAKEFRONT  MOCLDY    72  63  73 SW9       29.94R
CUY CO. ARPT   MOCLDY    73  64  73 W9        29.96
LORAIN-ELYRIA  MOCLDY    63  60  90 W6        29.98R
ASHTABULA      MOCLDY    67  62  84 CALM      29.96R
AKRON-CANTON   MOCLDY    69  64  84 W5        29.99R
WOOSTER        CLOUDY    65  61  87 W3        30.00R
MANSFIELD      MOCLDY    65  58  78 W6        30.01R
YOUNGSTOWN     MOCLDY    65  63  93 CALM      29.97R
$$

OHZ042-051>053-060>062-070>072-077>081-301200-
  SOUTHWEST OHIO

CITY           SKY/WX    TMP DP  RH WIND       PRES   REMARKS
CINC-COVINGTON MOCLDY    69  60  73 NW9       30.05R
CINC-LUNKEN    MOCLDY    68  64  87 CALM      30.04R
HAMILTON       PTCLDY    65  62  90 NW3       30.05R
DAYTON         PTCLDY    67  61  81 W6        30.05R
WRIGHT-PAT AFB CLEAR     69  63  81 NW3       30.03R
DAYTON GENERAL PTCLDY    69  60  73 NW5       30.04R
WILMINGTON     PTCLDY    70  61  73 NW6       30.03R
$$

OHZ036-037-039>041-045>050-054>059-063>069-073>076-082>088-301200-
  CENTRAL AND SOUTHEAST OHIO

CITY           SKY/WX    TMP DP  RH WIND       PRES   REMARKS
COLUMBUS       MOCLDY    70  60  70 NW6       30.00R
OSU AIRPORT    MOCLDY    66  62  87 W5        30.01R
BOLTON FIELD   MOCLDY    68  63  83 W3        30.02R
RICKENBACK AFB MOCLDY    70  62  75 CALM      30.01R
NEWARK         MOCLDY    70  63  78 CALM      30.00R
MARION         PTCLDY    67  58  72 W6        30.01R
LANCASTER      CLOUDY    70  66  87 CALM      30.01R
ZANESVILLE     MOCLDY    71  63  75 NW5       29.99R
NEW PHILLY     PTCLDY    70  63  78 CALM      29.99R
$$



USA.gov is the U.S. government's official web portal to all federal, state and local government web resources and services.